QPF
0.00 0.00 0.00 0.00 0.00 0.00 0.00 0.00 0.00 0.00 0.00 0.00 0.00 0.00 0.00 0.00 0.00 0.01 0.00 0.00 0.00 0.00 0.01 0.01 0.01 0.02 0.02 0.02 0.03 0.04 0.04 0.03 0.04 0.05 0.07 0.06 0.06 0.07 0.05 0.04 0.05 0.05 0.04 0.05 0.05 0.04 0.06 0.08 0.08
0.00 0.00 0.00 0.00 0.00 0.00 0.00 0.00 0.00 0.00 0.00 0.00 0.00 0.00 0.00 0.00 0.00 0.00 0.00 0.00 0.00 0.00 0.00 0.01 0.02 0.03 0.03 0.02 0.02 0.02 0.03 0.04 0.04 0.04 0.06 0.07 0.07 0.07 0.06 0.06 0.07 0.07 0.06 0.06 0.05 0.04 0.05 0.05 0.06
0.00 0.00 0.00 0.00 0.00 0.00 0.00 0.00 0.00 0.00 0.00 0.00 0.00 0.00 0.00 0.00 0.00 0.00 0.00 0.00 0.00 0.00 0.01 0.03 0.05 0.05 0.04 0.02 0.02 0.03 0.03 0.03 0.03 0.04 0.06 0.09 0.10 0.08 0.07 0.07 0.05 0.05 0.06 0.06 0.05 0.04 0.04 0.05 0.06
0.00 0.00 0.00 0.00 0.00 0.00 0.00 0.00 0.00 0.00 0.00 0.00 0.00 0.00 0.00 0.00 0.00 0.00 0.00 0.00 0.00 0.01 0.02 0.04 0.06 0.06 0.05 0.03 0.04 0.05 0.04 0.03 0.03 0.04 0.04 0.07 0.12 0.10 0.08 0.07 0.06 0.06 0.06 0.05 0.05 0.05 0.05 0.05 0.06
0.00 0.00 0.00 0.00 0.00 0.00 0.00 0.00 0.00 0.00 0.00 0.00 0.00 0.00 0.00 0.00 0.00 0.00 0.00 0.00 0.00 0.01 0.01 0.02 0.04 0.05 0.07 0.05 0.05 0.05 0.04 0.05 0.04 0.03 0.04 0.09 0.16 0.15 0.10 0.08 0.07 0.07 0.07 0.06 0.06 0.06 0.07 0.06 0.07
0.00 0.00 0.00 0.00 0.00 0.00 0.00 0.00 0.00 0.00 0.00 0.00 0.00 0.00 0.00 0.00 0.00 0.00 0.00 0.00 0.00 0.00 0.01 0.02 0.03 0.05 0.08 0.08 0.05 0.06 0.06 0.05 0.07 0.13 0.11 0.14 0.19 0.17 0.11 0.07 0.07 0.07 0.07 0.08 0.09 0.09 0.08 0.07 0.07
0.00 0.00 0.00 0.00 0.00 0.00 0.00 0.00 0.00 0.01 0.00 0.00 0.00 0.00 0.00 0.00 0.00 0.00 0.00 0.00 0.00 0.00 0.01 0.02 0.03 0.05 0.08 0.08 0.04 0.04 0.07 0.05 0.05 0.12 0.16 0.19 0.22 0.15 0.10 0.07 0.06 0.08 0.08 0.07 0.09 0.09 0.08 0.08 0.08
0.00 0.00 0.00 0.00 0.00 0.00 0.00 0.00 0.00 0.00 0.01 0.00 0.00 0.00 0.00 0.00 0.00 0.00 0.00 0.00 0.00 0.00 0.01 0.02 0.02 0.03 0.03 0.03 0.03 0.05 0.05 0.04 0.03 0.06 0.12 0.16 0.17 0.12 0.09 0.08 0.09 0.11 0.09 0.07 0.08 0.07 0.07 0.07 0.08
0.00 0.00 0.00 0.00 0.00 0.00 0.00 0.00 0.00 0.00 0.00 0.00 0.00 0.00 0.00 0.00 0.00 0.00 0.00 0.00 0.01 0.01 0.01 0.02 0.03 0.03 0.03 0.03 0.02 0.03 0.03 0.04 0.04 0.04 0.07 0.08 0.09 0.09 0.08 0.07 0.08 0.09 0.09 0.08 0.08 0.07 0.07 0.08 0.08
0.00 0.00 0.00 0.00 0.00 0.00 0.00 0.00 0.00 0.00 0.00 0.01 0.01 0.00 0.00 0.00 0.00 0.00 0.00 0.00 0.01 0.02 0.02 0.02 0.03 0.03 0.03 0.02 0.04 0.07 0.05 0.05 0.04 0.03 0.04 0.04 0.05 0.06 0.05 0.06 0.08 0.09 0.08 0.08 0.07 0.06 0.07 0.07 0.07
0.00 0.00 0.00 0.00 0.00 0.00 0.00 0.00 0.00 0.00 0.00 0.00 0.01 0.00 0.00 0.00 0.00 0.00 0.00 0.01 0.01 0.01 0.01 0.02 0.03 0.05 0.04 0.03 0.05 0.08 0.08 0.06 0.06 0.05 0.05 0.05 0.05 0.05 0.05 0.07 0.08 0.07 0.05 0.06 0.06 0.05 0.05 0.06 0.07
0.00 0.00 0.00 0.00 0.00 0.00 0.00 0.00 0.00 0.00 0.00 0.00 0.00 0.00 0.00 0.00 0.00 0.00 0.01 0.01 0.01 0.01 0.02 0.02 0.05 0.07 0.07 0.04 0.04 0.05 0.07 0.07 0.06 0.06 0.05 0.04 0.04 0.05 0.07 0.08 0.08 0.07 0.06 0.06 0.08 0.08 0.08 0.07 0.07
0.00 0.00 0.00 0.00 0.00 0.00 0.00 0.00 0.00 0.00 0.00 0.00 0.00 0.00 0.00 0.00 0.00 0.00 0.01 0.01 0.01 0.01 0.02 0.02 0.07 0.14 0.09 0.04 0.03 0.03 0.05 0.06 0.05 0.04 0.04 0.04 0.05 0.06 0.06 0.05 0.06 0.07 0.07 0.06 0.06 0.07 0.07 0.07 0.08
0.00 0.00 0.00 0.00 0.00 0.00 0.00 0.00 0.00 0.00 0.00 0.00 0.00 0.00 0.00 0.01 0.00 0.00 0.01 0.01 0.01 0.02 0.02 0.02 0.05 0.16 0.11 0.05 0.04 0.03 0.02 0.03 0.04 0.03 0.02 0.04 0.05 0.06 0.05 0.05 0.07 0.09 0.09 0.07 0.07 0.05 0.04 0.04 0.04
0.00 0.00 0.00 0.00 0.00 0.00 0.00 0.00 0.01 0.00 0.00 0.00 0.01 0.01 0.01 0.01 0.01 0.01 0.01 0.02 0.02 0.02 0.02 0.03 0.05 0.10 0.08 0.04 0.05 0.05 0.05 0.03 0.03 0.03 0.03 0.05 0.06 0.06 0.06 0.06 0.07 0.08 0.08 0.08 0.09 0.07 0.05 0.06 0.06
0.00 0.00 0.00 0.00 0.00 0.00 0.00 0.01 0.00 0.00 0.00 0.00 0.01 0.01 0.01 0.01 0.01 0.02 0.02 0.01 0.02 0.03 0.04 0.05 0.05 0.05 0.05 0.05 0.05 0.08 0.08 0.06 0.03 0.03 0.04 0.05 0.06 0.06 0.07 0.06 0.05 0.05 0.05 0.05 0.07 0.08 0.06 0.07 0.07
0.00 0.00 0.00 0.00 0.00 0.00 0.00 0.00 0.00 0.00 0.00 0.01 0.01 0.01 0.01 0.01 0.01 0.01 0.02 0.01 0.02 0.04 0.06 0.09 0.08 0.06 0.05 0.07 0.09 0.12 0.11 0.06 0.03 0.04 0.05 0.04 0.06 0.08 0.08 0.07 0.05 0.05 0.05 0.05 0.06 0.07 0.07 0.07 0.07
0.00 0.00 0.00 0.00 0.00 0.00 0.00 0.00 0.00 0.00 0.01 0.02 0.01 0.01 0.01 0.01 0.01 0.00 0.01 0.01 0.02 0.04 0.06 0.07 0.06 0.07 0.08 0.08 0.07 0.07 0.10 0.07 0.06 0.07 0.05 0.04 0.05 0.06 0.06 0.06 0.04 0.04 0.05 0.05 0.05 0.06 0.06 0.06 0.07
0.00 0.00 0.00 0.00 0.00 0.00 0.00 0.01 0.01 0.01 0.01 0.01 0.01 0.00 0.01 0.01 0.00 0.00 0.00 0.01 0.02 0.03 0.06 0.07 0.08 0.09 0.09 0.08 0.07 0.08 0.08 0.07 0.09 0.09 0.06 0.05 0.05 0.04 0.04 0.04 0.04 0.03 0.03 0.04 0.04 0.06 0.06 0.05 0.05
0.00 0.00 0.00 0.00 0.00 0.00 0.00 0.01 0.02 0.02 0.02 0.01 0.00 0.01 0.01 0.01 0.01 0.00 0.01 0.01 0.02 0.02 0.04 0.06 0.07 0.08 0.08 0.07 0.05 0.04 0.05 0.06 0.09 0.10 0.09 0.07 0.05 0.04 0.03 0.04 0.05 0.04 0.03 0.04 0.05 0.06 0.08 0.07 0.06
0.00 0.00 0.00 0.00 0.00 0.00 0.01 0.03 0.04 0.02 0.02 0.01 0.00 0.00 0.01 0.01 0.01 0.01 0.01 0.01 0.01 0.01 0.02 0.02 0.04 0.05 0.04 0.04 0.05 0.04 0.04 0.05 0.06 0.07 0.08 0.07 0.05 0.04 0.03 0.03 0.04 0.04 0.04 0.05 0.07 0.06 0.08 0.08 0.07
0.00 0.00 0.00 0.00 0.00 0.01 0.02 0.04 0.03 0.01 0.01 0.01 0.00 0.00 0.00 0.00 0.01 0.01 0.01 0.01 0.01 0.02 0.02 0.01 0.02 0.03 0.03 0.02 0.03 0.05 0.06 0.05 0.05 0.05 0.06 0.05 0.04 0.03 0.03 0.03 0.04 0.04 0.03 0.04 0.04 0.05 0.06 0.07 0.07
0.00 0.00 0.00 0.00 0.00 0.01 0.02 0.02 0.02 0.01 0.00 0.00 0.00 0.00 0.00 0.00 0.01 0.01 0.01 0.01 0.01 0.02 0.02 0.02 0.03 0.03 0.02 0.02 0.02 0.04 0.05 0.04 0.03 0.03 0.04 0.04 0.04 0.03 0.03 0.03 0.03 0.03 0.03 0.03 0.04 0.04 0.04 0.05 0.06
0.00 0.00 0.00 0.00 0.00 0.01 0.01 0.02 0.01 0.01 0.00 0.00 0.00 0.00 0.00 0.00 0.01 0.01 0.01 0.01 0.02 0.03 0.03 0.02 0.02 0.02 0.02 0.02 0.03 0.05 0.05 0.04 0.04 0.03 0.03 0.04 0.04 0.03 0.03 0.03 0.05 0.04 0.04 0.04 0.05 0.05 0.05 0.04 0.04
0.00 0.00 0.01 0.01 0.01 0.01 0.01 0.00 0.00 0.01 0.00 0.00 0.00 0.00 0.00 0.00 0.01 0.01 0.01 0.01 0.01 0.01 0.01 0.01 0.01 0.01 0.01 0.01 0.02 0.03 0.04 0.04 0.03 0.03 0.04 0.04 0.04 0.04 0.04 0.05 0.05 0.05 0.05 0.05 0.05 0.06 0.06 0.05 0.04
0.00 0.00 0.01 0.01 0.01 0.01 0.01 0.00 0.00 0.00 0.00 0.00 0.00 0.00 0.00 0.01 0.01 0.01 0.01 0.01 0.01 0.01 0.01 0.02 0.01 0.01 0.01 0.01 0.01 0.01 0.02 0.03 0.03 0.03 0.02 0.02 0.03 0.03 0.04 0.04 0.04 0.04 0.04 0.04 0.04 0.05 0.05 0.04 0.03
0.00 0.00 0.00 0.01 0.01 0.01 0.01 0.01 0.00 0.00 0.00 0.00 0.00 0.00 0.00 0.01 0.01 0.01 0.01 0.02 0.02 0.02 0.01 0.01 0.01 0.01 0.01 0.01 0.01 0.01 0.01 0.01 0.02 0.02 0.02 0.01 0.02 0.02 0.02 0.02 0.02 0.03 0.02 0.03 0.04 0.04 0.04 0.04 0.03
0.00 0.00 0.00 0.01 0.01 0.01 0.01 0.01 0.01 0.00 0.00 0.00 0.00 0.00 0.00 0.01 0.01 0.01 0.01 0.02 0.02 0.02 0.01 0.01 0.01 0.01 0.01 0.01 0.01 0.01 0.01 0.01 0.01 0.01 0.01 0.01 0.02 0.02 0.02 0.02 0.02 0.02 0.02 0.03 0.02 0.02 0.03 0.03 0.03
0.00 0.00 0.01 0.01 0.01 0.01 0.01 0.02 0.01 0.00 0.00 0.00 0.00 0.00 0.00 0.02 0.02 0.01 0.01 0.02 0.03 0.02 0.02 0.01 0.01 0.01 0.01 0.01 0.01 0.01 0.01 0.01 0.01 0.01 0.01 0.02 0.03 0.03 0.03 0.03 0.03 0.02 0.02 0.03 0.02 0.01 0.01 0.01 0.02
0.00 0.00 0.00 0.01 0.01 0.01 0.01 0.02 0.01 0.00 0.00 0.00 0.00 0.00 0.01 0.02 0.02 0.01 0.01 0.01 0.02 0.01 0.01 0.01 0.01 0.01 0.01 0.01 0.01 0.02 0.02 0.01 0.01 0.01 0.01 0.02 0.03 0.03 0.04 0.05 0.05 0.04 0.03 0.03 0.02 0.01 0.01 0.02 0.02
MSLP
1007.46 1007.79 1008.19 1008.58 1008.85 1008.96 1008.87 1008.61 1008.23 1007.81 1007.43 1007.14 1006.94 1006.82 1006.74 1006.64 1006.47 1006.24 1005.97 1005.72 1005.57 1005.58 1005.78 1006.18 1006.74 1007.37 1007.98 1008.50 1008.88 1009.09 1009.17 1009.17 1009.14 1009.14 1009.20 1009.32 1009.48 1009.64 1009.76 1009.82 1009.81 1009.74 1009.66 1009.58 1009.56 1009.60 1009.73 1009.94 1010.21
1007.50 1007.87 1008.30 1008.68 1008.93 1008.99 1008.83 1008.48 1008.00 1007.48 1006.98 1006.57 1006.28 1006.09 1005.97 1005.88 1005.77 1005.63 1005.47 1005.35 1005.32 1005.43 1005.71 1006.16 1006.75 1007.41 1008.05 1008.61 1009.02 1009.29 1009.42 1009.44 1009.42 1009.41 1009.42 1009.47 1009.54 1009.61 1009.65 1009.64 1009.58 1009.50 1009.42 1009.36 1009.37 1009.45 1009.62 1009.87 1010.19
1007.65 1008.06 1008.48 1008.83 1009.03 1009.02 1008.79 1008.37 1007.81 1007.19 1006.59 1006.09 1005.71 1005.45 1005.28 1005.18 1005.10 1005.02 1004.96 1004.94 1005.01 1005.21 1005.56 1006.06 1006.69 1007.37 1008.04 1008.63 1009.09 1009.41 1009.59 1009.65 1009.65 1009.62 1009.60 1009.59 1009.59 1009.58 1009.55 1009.50 1009.42 1009.33 1009.26 1009.23 1009.26 1009.38 1009.58 1009.85 1010.18
1007.89 1008.30 1008.70 1009.00 1009.14 1009.06 1008.77 1008.28 1007.66 1006.99 1006.33 1005.76 1005.31 1004.99 1004.78 1004.66 1004.58 1004.54 1004.54 1004.59 1004.73 1004.99 1005.39 1005.92 1006.56 1007.26 1007.95 1008.56 1009.07 1009.43 1009.65 1009.76 1009.78 1009.75 1009.71 1009.67 1009.62 1009.57 1009.52 1009.44 1009.36 1009.29 1009.23 1009.22 1009.27 1009.40 1009.60 1009.87 1010.20
1008.17 1008.57 1008.92 1009.15 1009.21 1009.07 1008.73 1008.22 1007.58 1006.89 1006.22 1005.63 1005.14 1004.78 1004.53 1004.37 1004.28 1004.25 1004.27 1004.35 1004.53 1004.82 1005.24 1005.78 1006.42 1007.11 1007.80 1008.43 1008.95 1009.34 1009.60 1009.74 1009.79 1009.78 1009.74 1009.69 1009.64 1009.58 1009.53 1009.47 1009.40 1009.35 1009.31 1009.31 1009.36 1009.47 1009.65 1009.90 1010.21
1008.44 1008.79 1009.07 1009.23 1009.22 1009.03 1008.66 1008.15 1007.53 1006.88 1006.23 1005.65 1005.17 1004.79 1004.51 1004.32 1004.21 1004.16 1004.18 1004.27 1004.45 1004.74 1005.16 1005.68 1006.30 1006.96 1007.62 1008.23 1008.75 1009.16 1009.44 1009.60 1009.68 1009.70 1009.68 1009.65 1009.62 1009.59 1009.56 1009.53 1009.50 1009.47 1009.45 1009.44 1009.48 1009.55 1009.69 1009.89 1010.17
1008.64 1008.93 1009.12 1009.19 1009.12 1008.89 1008.53 1008.05 1007.49 1006.89 1006.32 1005.79 1005.33 1004.96 1004.67 1004.46 1004.32 1004.24 1004.24 1004.31 1004.48 1004.75 1005.14 1005.63 1006.20 1006.82 1007.44 1008.02 1008.52 1008.91 1009.20 1009.38 1009.48 1009.53 1009.54 1009.54 1009.54 1009.55 1009.56 1009.57 1009.58 1009.57 1009.56 1009.54 1009.54 1009.58 1009.66 1009.81 1010.04
1008.75 1008.95 1009.06 1009.05 1008.91 1008.67 1008.32 1007.89 1007.41 1006.91 1006.42 1005.96 1005.55 1005.20 1004.91 1004.68 1004.51 1004.41 1004.38 1004.42 1004.57 1004.81 1005.16 1005.60 1006.13 1006.69 1007.26 1007.79 1008.26 1008.64 1008.92 1009.12 1009.23 1009.30 1009.35 1009.38 1009.42 1009.47 1009.52 1009.56 1009.60 1009.61 1009.59 1009.56 1009.53 1009.51 1009.54 1009.64 1009.84
1008.76 1008.87 1008.89 1008.80 1008.62 1008.37 1008.05 1007.70 1007.31 1006.90 1006.51 1006.12 1005.76 1005.44 1005.15 1004.91 1004.72 1004.59 1004.53 1004.55 1004.66 1004.87 1005.18 1005.57 1006.04 1006.55 1007.07 1007.56 1008.00 1008.36 1008.64 1008.84 1008.97 1009.06 1009.13 1009.19 1009.26 1009.34 1009.42 1009.49 1009.54 1009.56 1009.54 1009.49 1009.43 1009.38 1009.36 1009.43 1009.59
1008.70 1008.71 1008.64 1008.49 1008.29 1008.04 1007.78 1007.49 1007.20 1006.89 1006.58 1006.26 1005.95 1005.65 1005.37 1005.11 1004.90 1004.75 1004.65 1004.64 1004.72 1004.89 1005.16 1005.51 1005.93 1006.39 1006.86 1007.32 1007.73 1008.08 1008.36 1008.57 1008.72 1008.84 1008.92 1009.01 1009.10 1009.19 1009.28 1009.37 1009.42 1009.44 1009.43 1009.37 1009.29 1009.22 1009.18 1009.22 1009.37
1008.59 1008.52 1008.37 1008.18 1007.97 1007.75 1007.53 1007.32 1007.11 1006.89 1006.65 1006.39 1006.12 1005.83 1005.55 1005.28 1005.05 1004.86 1004.74 1004.69 1004.73 1004.86 1005.08 1005.39 1005.77 1006.19 1006.63 1007.06 1007.46 1007.81 1008.10 1008.33 1008.50 1008.64 1008.75 1008.85 1008.95 1009.05 1009.15 1009.24 1009.30 1009.32 1009.31 1009.26 1009.18 1009.11 1009.08 1009.11 1009.25
1008.46 1008.31 1008.12 1007.91 1007.71 1007.53 1007.38 1007.24 1007.10 1006.95 1006.77 1006.56 1006.31 1006.03 1005.74 1005.46 1005.20 1004.98 1004.82 1004.73 1004.72 1004.80 1004.97 1005.23 1005.56 1005.94 1006.35 1006.77 1007.17 1007.53 1007.84 1008.10 1008.31 1008.48 1008.61 1008.74 1008.85 1008.96 1009.06 1009.15 1009.21 1009.25 1009.25 1009.22 1009.17 1009.12 1009.11 1009.15 1009.29
1008.34 1008.15 1007.93 1007.72 1007.55 1007.42 1007.33 1007.26 1007.19 1007.10 1006.97 1006.79 1006.56 1006.29 1005.99 1005.69 1005.40 1005.15 1004.94 1004.80 1004.73 1004.75 1004.86 1005.06 1005.34 1005.68 1006.06 1006.46 1006.87 1007.25 1007.59 1007.88 1008.13 1008.34 1008.51 1008.66 1008.79 1008.91 1009.02 1009.12 1009.20 1009.26 1009.28 1009.29 1009.28 1009.27 1009.29 1009.36 1009.50
1008.24 1008.03 1007.82 1007.63 1007.50 1007.42 1007.39 1007.38 1007.37 1007.33 1007.24 1007.09 1006.88 1006.63 1006.34 1006.03 1005.72 1005.43 1005.17 1004.97 1004.83 1004.77 1004.80 1004.92 1005.14 1005.42 1005.78 1006.16 1006.57 1006.97 1007.34 1007.67 1007.96 1008.20 1008.41 1008.59 1008.75 1008.89 1009.02 1009.15 1009.25 1009.34 1009.41 1009.47 1009.51 1009.56 1009.63 1009.72 1009.88
1008.20 1007.98 1007.79 1007.63 1007.54 1007.51 1007.53 1007.57 1007.60 1007.60 1007.54 1007.43 1007.26 1007.04 1006.77 1006.47 1006.15 1005.83 1005.53 1005.26 1005.04 1004.90 1004.84 1004.87 1005.01 1005.24 1005.54 1005.91 1006.30 1006.71 1007.09 1007.45 1007.77 1008.05 1008.29 1008.50 1008.69 1008.87 1009.03 1009.19 1009.34 1009.48 1009.60 1009.71 1009.82 1009.92 1010.04 1010.17 1010.34
1008.20 1008.00 1007.83 1007.71 1007.65 1007.65 1007.69 1007.75 1007.81 1007.84 1007.82 1007.76 1007.64 1007.46 1007.24 1006.97 1006.67 1006.34 1006.00 1005.67 1005.37 1005.14 1004.98 1004.93 1004.98 1005.14 1005.40 1005.73 1006.10 1006.49 1006.88 1007.24 1007.57 1007.86 1008.12 1008.36 1008.58 1008.79 1009.00 1009.21 1009.41 1009.60 1009.78 1009.96 1010.12 1010.29 1010.45 1010.62 1010.81
1008.26 1008.09 1007.94 1007.83 1007.79 1007.79 1007.83 1007.88 1007.94 1007.98 1007.99 1007.98 1007.92 1007.82 1007.67 1007.46 1007.20 1006.88 1006.53 1006.15 1005.79 1005.48 1005.24 1005.10 1005.08 1005.17 1005.37 1005.66 1005.99 1006.35 1006.71 1007.05 1007.36 1007.64 1007.90 1008.15 1008.39 1008.64 1008.89 1009.15 1009.41 1009.67 1009.92 1010.15 1010.38 1010.59 1010.80 1011.01 1011.22
1008.39 1008.23 1008.10 1008.00 1007.93 1007.90 1007.90 1007.91 1007.93 1007.96 1007.99 1008.02 1008.04 1008.02 1007.97 1007.85 1007.65 1007.38 1007.04 1006.65 1006.25 1005.88 1005.57 1005.37 1005.28 1005.32 1005.47 1005.71 1005.99 1006.31 1006.61 1006.90 1007.16 1007.41 1007.64 1007.87 1008.13 1008.40 1008.70 1009.01 1009.33 1009.66 1009.97 1010.27 1010.55 1010.81 1011.05 1011.29 1011.52
1008.56 1008.43 1008.31 1008.19 1008.08 1007.98 1007.90 1007.83 1007.78 1007.77 1007.79 1007.85 1007.94 1008.02 1008.07 1008.06 1007.96 1007.76 1007.46 1007.09 1006.68 1006.29 1005.95 1005.70 1005.58 1005.58 1005.69 1005.88 1006.11 1006.36 1006.60 1006.81 1006.99 1007.17 1007.35 1007.55 1007.79 1008.08 1008.42 1008.78 1009.17 1009.56 1009.94 1010.30 1010.63 1010.92 1011.20 1011.46 1011.71
1008.76 1008.66 1008.54 1008.40 1008.23 1008.04 1007.84 1007.65 1007.50 1007.42 1007.41 1007.49 1007.63 1007.80 1007.97 1008.08 1008.09 1007.98 1007.76 1007.43 1007.05 1006.66 1006.32 1006.06 1005.92 1005.90 1005.99 1006.14 1006.32 1006.50 1006.66 1006.78 1006.87 1006.95 1007.05 1007.20 1007.42 1007.71 1008.08 1008.50 1008.95 1009.41 1009.85 1010.26 1010.63 1010.96 1011.25 1011.52 1011.78
1008.96 1008.91 1008.80 1008.63 1008.39 1008.09 1007.75 1007.43 1007.15 1006.97 1006.91 1006.98 1007.15 1007.41 1007.68 1007.91 1008.04 1008.04 1007.91 1007.66 1007.33 1006.98 1006.66 1006.42 1006.29 1006.27 1006.33 1006.46 1006.59 1006.71 1006.77 1006.79 1006.78 1006.76 1006.77 1006.86 1007.04 1007.32 1007.70 1008.17 1008.68 1009.20 1009.71 1010.17 1010.58 1010.93 1011.23 1011.51 1011.76
1009.16 1009.16 1009.07 1008.87 1008.57 1008.16 1007.70 1007.22 1006.81 1006.52 1006.38 1006.41 1006.61 1006.92 1007.27 1007.61 1007.86 1007.98 1007.95 1007.79 1007.53 1007.23 1006.96 1006.75 1006.64 1006.63 1006.69 1006.79 1006.88 1006.93 1006.91 1006.83 1006.71 1006.59 1006.51 1006.52 1006.65 1006.92 1007.32 1007.82 1008.38 1008.96 1009.52 1010.03 1010.47 1010.85 1011.16 1011.42 1011.66
1009.32 1009.38 1009.33 1009.12 1008.77 1008.27 1007.69 1007.09 1006.54 1006.13 1005.91 1005.90 1006.09 1006.42 1006.85 1007.28 1007.63 1007.85 1007.92 1007.85 1007.67 1007.44 1007.22 1007.05 1006.96 1006.96 1007.01 1007.09 1007.14 1007.12 1007.03 1006.86 1006.64 1006.41 1006.25 1006.19 1006.27 1006.51 1006.91 1007.43 1008.04 1008.67 1009.28 1009.83 1010.31 1010.70 1011.01 1011.27 1011.50
1009.44 1009.57 1009.55 1009.36 1008.98 1008.43 1007.76 1007.05 1006.39 1005.87 1005.57 1005.50 1005.66 1006.00 1006.47 1006.96 1007.39 1007.70 1007.87 1007.88 1007.78 1007.62 1007.44 1007.31 1007.24 1007.23 1007.27 1007.32 1007.32 1007.25 1007.08 1006.83 1006.52 1006.21 1005.97 1005.84 1005.87 1006.08 1006.46 1007.00 1007.62 1008.29 1008.94 1009.53 1010.04 1010.46 1010.78 1011.03 1011.25
1009.53 1009.71 1009.73 1009.56 1009.17 1008.59 1007.86 1007.08 1006.34 1005.74 1005.36 1005.23 1005.35 1005.68 1006.16 1006.68 1007.17 1007.55 1007.80 1007.89 1007.86 1007.75 1007.62 1007.51 1007.45 1007.43 1007.45 1007.45 1007.40 1007.27 1007.04 1006.72 1006.34 1005.96 1005.64 1005.45 1005.42 1005.59 1005.95 1006.48 1007.11 1007.80 1008.48 1009.10 1009.64 1010.08 1010.43 1010.70 1010.92
1009.58 1009.78 1009.83 1009.68 1009.30 1008.71 1007.97 1007.16 1006.37 1005.71 1005.26 1005.07 1005.15 1005.44 1005.90 1006.43 1006.96 1007.39 1007.69 1007.85 1007.88 1007.83 1007.74 1007.64 1007.58 1007.54 1007.52 1007.48 1007.38 1007.19 1006.90 1006.52 1006.08 1005.64 1005.26 1005.01 1004.93 1005.05 1005.37 1005.86 1006.48 1007.17 1007.86 1008.51 1009.09 1009.57 1009.95 1010.25 1010.50
1009.60 1009.79 1009.83 1009.68 1009.32 1008.74 1008.01 1007.20 1006.39 1005.71 1005.22 1004.97 1004.99 1005.23 1005.66 1006.17 1006.70 1007.16 1007.51 1007.72 1007.82 1007.81 1007.76 1007.68 1007.61 1007.55 1007.49 1007.40 1007.24 1007.00 1006.66 1006.23 1005.74 1005.26 1004.83 1004.52 1004.39 1004.45 1004.71 1005.16 1005.74 1006.41 1007.11 1007.78 1008.39 1008.92 1009.35 1009.71 1010.00
1009.58 1009.70 1009.71 1009.54 1009.18 1008.64 1007.93 1007.14 1006.36 1005.66 1005.15 1004.86 1004.81 1005.00 1005.36 1005.84 1006.35 1006.82 1007.20 1007.46 1007.61 1007.67 1007.65 1007.60 1007.53 1007.46 1007.36 1007.22 1007.02 1006.73 1006.34 1005.87 1005.35 1004.83 1004.36 1004.01 1003.81 1003.81 1004.01 1004.39 1004.92 1005.56 1006.25 1006.93 1007.58 1008.17 1008.67 1009.10 1009.47
1009.50 1009.51 1009.44 1009.24 1008.88 1008.36 1007.70 1006.96 1006.21 1005.53 1005.01 1004.68 1004.57 1004.69 1004.98 1005.40 1005.87 1006.33 1006.73 1007.04 1007.25 1007.36 1007.40 1007.39 1007.34 1007.26 1007.13 1006.96 1006.72 1006.39 1005.98 1005.48 1004.94 1004.39 1003.89 1003.50 1003.25 1003.17 1003.30 1003.61 1004.08 1004.67 1005.34 1006.03 1006.72 1007.36 1007.94 1008.46 1008.91
1009.34 1009.21 1009.04 1008.78 1008.42 1007.92 1007.32 1006.65 1005.96 1005.32 1004.80 1004.44 1004.28 1004.32 1004.53 1004.87 1005.29 1005.73 1006.14 1006.48 1006.74 1006.92 1007.03 1007.06 1007.04 1006.97 1006.85 1006.66 1006.39 1006.04 1005.60 1005.09 1004.54 1003.97 1003.45 1003.02 1002.71 1002.58 1002.62 1002.86 1003.26 1003.80 1004.44 1005.13 1005.84 1006.54 1007.20 1007.80 1008.34
Thickness
5826 5831 5834 5832 5826 5822 5808 5812 5818 5816 5817 5823 5823 5818 5812 5807 5801 5790 5806 5813 5810 5807 5801 5791 5787 5784 5782 5780 5779 5777 5776 5774 5773 5772 5770 5768 5767 5766 5765 5764 5763 5763 5762 5761 5761 5760 5759 5758 5758
5833 5834 5831 5831 5824 5805 5802 5815 5814 5815 5820 5824 5821 5817 5812 5808 5811 5807 5809 5809 5809 5806 5800 5793 5785 5782 5780 5778 5776 5775 5774 5772 5771 5770 5768 5767 5765 5764 5763 5762 5761 5761 5760 5759 5758 5757 5756 5756 5755
5834 5834 5830 5831 5817 5807 5803 5815 5816 5820 5824 5822 5817 5817 5812 5806 5808 5809 5810 5809 5808 5804 5799 5790 5784 5781 5778 5776 5774 5773 5772 5770 5769 5768 5766 5765 5763 5762 5761 5760 5759 5758 5757 5756 5755 5755 5754 5753 5753
5834 5831 5831 5824 5809 5813 5815 5818 5821 5818 5820 5822 5818 5810 5812 5813 5813 5813 5811 5809 5806 5802 5798 5789 5782 5780 5777 5775 5772 5771 5770 5769 5768 5766 5765 5763 5762 5760 5759 5758 5757 5756 5755 5754 5753 5752 5752 5751 5751
5834 5830 5821 5813 5810 5816 5823 5825 5824 5818 5816 5818 5817 5806 5804 5812 5815 5813 5809 5807 5804 5801 5797 5789 5781 5778 5775 5773 5771 5769 5768 5767 5766 5764 5763 5762 5760 5759 5757 5756 5755 5754 5753 5752 5751 5751 5749 5749 5748
5828 5828 5814 5805 5808 5815 5822 5826 5825 5820 5818 5818 5814 5807 5803 5811 5810 5808 5808 5805 5803 5799 5795 5787 5779 5777 5774 5771 5769 5767 5766 5765 5764 5762 5761 5760 5759 5757 5756 5754 5753 5752 5751 5750 5750 5749 5747 5747 5746
5823 5821 5811 5810 5806 5810 5818 5827 5822 5819 5815 5816 5818 5807 5804 5807 5808 5808 5806 5804 5800 5797 5793 5788 5783 5777 5772 5770 5768 5765 5764 5762 5761 5760 5759 5758 5757 5756 5754 5753 5752 5751 5750 5749 5749 5748 5746 5746 5745
5830 5821 5810 5810 5805 5808 5820 5825 5825 5820 5816 5823 5821 5808 5803 5805 5808 5806 5803 5800 5797 5794 5791 5787 5784 5780 5776 5771 5766 5764 5762 5760 5759 5758 5757 5756 5755 5755 5753 5753 5751 5750 5749 5748 5747 5747 5746 5745 5744
5827 5813 5805 5809 5808 5811 5821 5819 5823 5828 5821 5818 5820 5816 5815 5811 5807 5801 5797 5794 5792 5789 5788 5785 5783 5780 5777 5774 5768 5764 5761 5759 5758 5757 5755 5755 5757 5757 5754 5752 5750 5749 5748 5747 5746 5746 5745 5744 5744
5818 5806 5809 5817 5820 5817 5819 5818 5819 5818 5813 5811 5811 5812 5812 5807 5802 5797 5793 5790 5787 5785 5785 5784 5782 5779 5777 5774 5770 5767 5764 5761 5760 5759 5757 5757 5756 5756 5755 5751 5749 5748 5747 5746 5746 5746 5745 5745 5746
5815 5809 5814 5817 5822 5821 5817 5817 5821 5814 5807 5811 5808 5807 5806 5803 5799 5796 5794 5792 5789 5787 5783 5783 5781 5778 5776 5773 5770 5768 5766 5763 5760 5758 5757 5755 5755 5755 5754 5753 5750 5749 5748 5748 5747 5747 5748 5747 5746
5809 5810 5813 5816 5819 5817 5815 5816 5814 5813 5813 5821 5819 5814 5807 5801 5799 5797 5794 5791 5789 5786 5783 5781 5779 5776 5773 5772 5769 5767 5766 5764 5762 5758 5756 5755 5754 5754 5753 5752 5751 5751 5750 5748 5748 5747 5747 5746 5745
5804 5806 5811 5814 5815 5816 5814 5812 5811 5810 5818 5821 5817 5812 5806 5803 5800 5799 5796 5792 5788 5784 5781 5780 5777 5773 5771 5768 5767 5766 5764 5763 5760 5758 5757 5755 5755 5753 5753 5751 5749 5750 5749 5748 5746 5746 5744 5744 5744
5804 5805 5807 5810 5812 5812 5807 5808 5807 5807 5815 5813 5809 5806 5805 5802 5800 5796 5793 5789 5786 5783 5780 5778 5775 5772 5769 5766 5764 5764 5763 5760 5759 5758 5756 5754 5754 5752 5751 5750 5748 5748 5747 5746 5744 5743 5743 5742 5742
5803 5797 5800 5804 5807 5808 5806 5795 5799 5807 5810 5806 5804 5803 5802 5800 5798 5794 5792 5788 5786 5782 5779 5776 5772 5770 5767 5765 5763 5762 5760 5759 5757 5756 5754 5753 5752 5750 5749 5749 5747 5746 5745 5743 5741 5741 5741 5741 5740
5796 5790 5787 5797 5802 5803 5795 5784 5799 5807 5803 5799 5800 5799 5797 5796 5796 5795 5792 5789 5786 5782 5777 5774 5773 5768 5765 5763 5760 5759 5758 5756 5755 5754 5752 5751 5750 5748 5747 5747 5747 5744 5744 5742 5741 5740 5739 5738 5738
5785 5781 5784 5788 5797 5798 5792 5785 5795 5802 5799 5794 5794 5795 5793 5792 5793 5792 5791 5788 5784 5780 5776 5772 5770 5767 5764 5760 5758 5756 5754 5754 5753 5752 5751 5749 5747 5746 5745 5745 5744 5743 5742 5742 5741 5740 5738 5735 5735
5776 5781 5781 5781 5789 5790 5785 5784 5790 5795 5794 5791 5791 5791 5790 5788 5788 5789 5788 5785 5781 5778 5774 5770 5767 5764 5761 5759 5755 5754 5753 5752 5751 5750 5747 5746 5745 5744 5744 5743 5741 5741 5741 5740 5738 5736 5735 5735 5734
5782 5779 5777 5781 5787 5782 5778 5778 5783 5788 5788 5787 5787 5788 5787 5786 5787 5786 5784 5781 5777 5774 5770 5767 5764 5761 5759 5756 5754 5752 5751 5750 5749 5747 5745 5744 5743 5741 5740 5742 5739 5739 5739 5737 5736 5734 5732 5732 5733
5774 5770 5772 5776 5781 5775 5772 5773 5781 5783 5784 5786 5785 5784 5785 5783 5782 5780 5779 5777 5774 5771 5767 5765 5762 5760 5758 5756 5753 5752 5751 5749 5747 5745 5742 5741 5739 5738 5739 5738 5738 5737 5736 5734 5733 5731 5731 5730 5730
5767 5767 5769 5767 5771 5771 5765 5763 5772 5779 5783 5784 5785 5785 5785 5782 5779 5776 5774 5773 5771 5768 5765 5763 5759 5757 5756 5754 5752 5749 5746 5745 5742 5740 5738 5737 5737 5736 5735 5735 5735 5734 5734 5732 5730 5729 5727 5727 5728
5759 5773 5771 5766 5759 5761 5761 5753 5768 5775 5773 5776 5779 5781 5781 5781 5778 5774 5772 5769 5768 5766 5764 5761 5757 5754 5753 5751 5750 5746 5743 5740 5739 5737 5736 5735 5734 5733 5732 5731 5731 5731 5732 5729 5729 5728 5727 5725 5725
5764 5773 5769 5764 5759 5757 5759 5751 5765 5773 5766 5771 5775 5777 5778 5778 5776 5772 5770 5768 5766 5765 5762 5759 5754 5751 5749 5748 5746 5743 5741 5739 5738 5735 5733 5732 5731 5730 5730 5729 5728 5727 5727 5726 5725 5725 5724 5725 5724
5766 5763 5761 5760 5759 5741 5755 5749 5755 5769 5769 5770 5773 5774 5774 5774 5773 5770 5769 5767 5763 5762 5759 5756 5751 5747 5746 5744 5742 5740 5737 5736 5733 5731 5730 5729 5729 5728 5727 5726 5725 5724 5724 5723 5722 5722 5721 5721 5720
5756 5746 5736 5734 5737 5743 5760 5749 5755 5769 5772 5770 5768 5769 5771 5770 5769 5767 5765 5763 5760 5758 5755 5752 5748 5743 5741 5740 5738 5736 5734 5732 5730 5729 5728 5728 5727 5726 5724 5724 5722 5722 5720 5720 5719 5718 5718 5717 5716
5750 5750 5735 5727 5734 5748 5748 5745 5759 5768 5769 5768 5767 5767 5766 5765 5765 5764 5762 5760 5757 5754 5751 5748 5745 5741 5738 5736 5734 5732 5731 5731 5730 5727 5728 5726 5726 5725 5722 5721 5720 5719 5718 5717 5716 5716 5715 5714 5712
5745 5748 5759 5745 5743 5739 5746 5750 5754 5759 5758 5759 5760 5759 5758 5759 5759 5759 5758 5756 5753 5750 5747 5745 5741 5737 5735 5734 5731 5729 5728 5727 5726 5724 5723 5724 5722 5722 5720 5717 5716 5715 5714 5713 5712 5712 5711 5710 5710
5753 5751 5743 5734 5720 5721 5735 5739 5745 5746 5749 5751 5752 5752 5753 5753 5753 5752 5751 5750 5748 5747 5744 5741 5737 5734 5733 5731 5728 5727 5725 5723 5722 5722 5720 5719 5718 5717 5716 5714 5712 5712 5711 5710 5709 5709 5707 5706 5705
5736 5736 5737 5737 5736 5722 5721 5736 5753 5750 5749 5747 5748 5749 5748 5748 5747 5746 5745 5745 5743 5741 5739 5735 5733 5730 5728 5727 5725 5723 5722 5720 5719 5718 5716 5714 5713 5712 5711 5710 5709 5708 5707 5706 5705 5705 5704 5702 5701
5738 5736 5733 5720 5721 5727 5725 5732 5749 5749 5748 5745 5743 5742 5742 5742 5742 5742 5740 5738 5736 5735 5733 5731 5728 5726 5725 5724 5721 5719 5718 5717 5715 5714 5712 5710 5708 5708 5707 5706 5705 5704 5703 5702 5701 5700 5699 5698 5697